Regional Weather Roundup
Issued by NWS Bismarck, ND

Home | Current Version | Previous Version | Text Only | Print | Product List | Glossary On
Versions: 1 2 3 4 5 6 7 8 9 10 11 12 13 14 15 16 17 18 19 20 21 22 23 24 25 26 27 28 29 30 31 32 33 34 35 36 37 38 39 40 41 42 43 44 45 46 47 48 49 50
000
ASUS43 KBIS 201902
RWRBIS

NWR BROADCAST TEXT
NATIONAL WEATHER SERVICE BISMARCK ND
100 PM CST MON FEB 20 2017

NOTE: "FAIR" INDICATES FEW OR NO CLOUDS BELOW 12,000 FEET WITH NO
SIGNIFICANT WEATHER AND/OR OBSTRUCTIONS TO VISIBILITY.


CITY           SKY/WX    TMP DP  RH WIND       PRES   REMARKS
WILLISTON      FAIR      43  32  65 W14       29.72S
MINOT          FAIR      45  37  73 W13       29.67F
MINOT AFB      FAIR      41  37  83 W8        29.66F
BISMARCK       FAIR      46  37  71 NW13      29.72S
DICKINSON      FAIR      51  31  46 W15       29.73S
GARRISON         N/A     43  36  76 NW13      29.69F
HETTINGER ARPT FAIR      52  34  50 NW16      29.77F
JAMESTOWN      RAIN      35  34  96 NW13      29.65F FOG
CARRINGTON     LGT RAIN  34  34 100 NW17      29.68F
HAZEN            N/A    N/A N/A N/A W12       29.73F
MANDAN         FAIR      43  37  81 NW15      29.72S
STANLEY        FAIR      43  41  93 W8        29.71R
$$

CITY           SKY/WX    TMP DP  RH WIND       PRES   REMARKS
GRAND FORKS    RAIN      37  33  85 NW13      29.60S FOG
GRAND FORKS AF LGT RAIN  37  37 100 NW12      29.61R
DEVILS LAKE    LGT RAIN  34  33  96 NW14      29.64F
FARGO          CLOUDY    42  41  96 NW14      29.60F FOG
CAVALIER       CLOUDY    37  36  93 NW14      29.60F
GRAFTON        DRIZZLE   36  36 100 NW8       29.62F
GWINNER        CLOUDY    41  39  93 NW17      29.64S
ROLLA          FAIR      36  36 100 W12       29.64F
$$

CITY           SKY/WX    TMP DP  RH WIND       PRES   REMARKS
ABERDEEN       PTSUNNY   47  38  71 NW17      29.66F
MOBRIDGE       FAIR      47  38  71 NW14      29.71S
BUFFALO          N/A     56  22  26 W26       29.72F
RAPID CITY     FAIR      59  17  19 NW9G22    29.82S
GLASGOW        FAIR      47  29  49 W9        29.71F
SIDNEY         FAIR      52  26  36 W17G24    29.73S
WOLF POINT     FAIR      42  32  67 W8        29.73F
GLENDIVE       FAIR      54  27  35 W15       29.75F
MILES CITY     FAIR      54  22  28 SW8       29.76F
BAKER          FAIR      51  29  42 W14       29.78F
$$

CITY           SKY/WX    TMP DP  RH WIND       PRES   REMARKS
BILLINGS       PTSUNNY   51  25  36 S9        29.73F
GREAT FALLS    FAIR      52  23  32 S15G22    29.59F
$$





USA.gov is the U.S. government's official web portal to all federal, state and local government web resources and services.